This demonstration page uses our WeatherBlox Daily Observations layout. Learn more.

Left ArrowRight Arrow

Hourly Observations for May 18, 2021

Temp ( °F °C ) Dew Point ( °F °C ) Humidity (%) Winds ( mph kmh ) Pressure ( in mb ) Visibility ( mi km ) Precip ( " mm )
12:15 am 00:15 Cloudy with Mist and Fog 59 15 58 14.5 97 97 ENE 9 15 29.95 1014 2 3.21868 N/A
12:35 am 00:35 Cloudy with Mist and Fog 59 15 58 14.5 97 97 ENE 10 17 29.95 1014 1.75 2.816345 N/A
12:55 am 00:55 Cloudy with Rain 59 15 58 14.5 97 97 ENE 9 15 29.95 1014 1.75 2.816345 N/A
1:15 am 01:15 Cloudy with Light Rain 59 15.1 58 14.6 97 97 ENE 9 15 29.94 1014 1.75 2.816345 N/A
1:35 am 01:35 Cloudy with Mist and Fog 60 15.3 59 15 98 98 ENE 7 11 29.93 1013 2 3.21868 N/A
1:55 am 01:55 Cloudy with Mist and Fog 60 15.5 59 15 97 97 E 9 15 29.93 1013 1.75 2.816345 N/A
2:15 am 02:15 Cloudy with Mist and Fog 60 15.5 59 15.1 97 97 E 9 15 29.93 1013 2.5 4.02335 N/A
2:35 am 02:35 Cloudy with Mist and Fog 60 15.5 59 15.1 97 97 ESE 7 11 29.93 1013 2 3.21868 N/A
2:55 am 02:55 Cloudy with Mist and Fog 60 15.6 59 15.2 97 97 ESE 8 13 29.92 1013 4 6.43736 N/A
3:15 am 03:15 Cloudy with Mist and Fog 60 15.6 59 15.1 97 97 ESE 8 13 29.92 1013 4 6.43736 N/A
3:35 am 03:35 Cloudy with Mist and Fog 60 15.6 59 15.1 97 97 ESE 10 17 29.91 1013 3 4.82802 N/A
3:55 am 03:55 Cloudy with Mist and Fog 60 15.6 59 15.1 97 97 SE 9 15 29.91 1013 4 6.43736 N/A
4:15 am 04:15 Cloudy with Mist and Fog 60 15.6 59 15.1 97 97 SE 10 17 29.89 1012 3 4.82802 N/A
4:35 am 04:35 Cloudy with Mist and Fog 60 15.6 59 15.1 97 97 SE 7 11 29.89 1012 4 6.43736 N/A
4:55 am 04:55 Cloudy with Mist and Fog 60 15.5 59 15 97 97 SE 7 11 29.9 1012 4 6.43736 N/A
5:15 am 05:15 Cloudy with Mist and Fog 60 15.5 59 15 97 97 ESE 7 11 29.9 1012 4 6.43736 N/A
5:35 am 05:35 Cloudy with Mist and Fog 60 15.5 59 15 97 97 ESE 7 11 29.9 1012 2.5 4.02335 N/A
5:55 am 05:55 Cloudy with Mist and Fog 60 15.5 59 15 97 97 SE 5 7 29.91 1013 3 4.82802 N/A
6:15 am 06:15 Cloudy with Mist and Fog 60 15.5 59 15 97 97 SE 5 7 29.92 1013 4 6.43736 N/A
6:35 am 06:35 Cloudy with Mist and Fog 60 15.5 59 15 97 97 ESE 5 7 29.92 1013 5 8.0467 N/A
6:55 am 06:55 Cloudy with Light Rain 60 15.5 59 15 97 97 ESE 3 6 29.92 1013 3 4.82802 0.01 0.254
7:15 am 07:15 Cloudy with Drizzle 60 15.5 59 15 97 97 ESE 6 9 29.92 1013 2.5 4.02335 0.01 0.254
7:35 am 07:35 Cloudy with Mist and Fog 60 15.5 59 15 97 97 E 7 11 29.92 1013 2.5 4.02335 0.01 0.254
7:55 am 07:55 Cloudy with Mist and Fog 60 15.6 59 15.1 97 97 E 8 13 29.91 1013 3 4.82802 0.01 0.254
8:15 am 08:15 Cloudy with Mist and Fog 60 15.6 59 15 96 96 ESE 9 15 29.9 1013 4 6.43736 N/A
8:35 am 08:35 Cloudy with Mist and Fog 61 15.9 59 15.2 96 96 E 9 15 29.89 1012 5 8.0467 N/A
8:55 am 08:55 Cloudy 61 16.1 60 15.4 96 96 E 13 20 29.9 1013 7 11.26538 N/A
9:15 am 09:15 Cloudy 61 16.3 60 15.3 94 94 E 14 22 29.89 1012 7 11.26538 N/A
9:35 am 09:35 Mostly Cloudy 62 16.9 60 15.5 92 92 E 12 19 29.88 1012 10 16.0934 N/A
9:55 am 09:55 Mostly Cloudy 64 17.5 60 15.4 88 88 E 10 17 29.88 1012 10 16.0934 N/A
10:15 am 10:15 Cloudy 63 17.4 59 14.8 85 85 E 10 17 29.87 1011 10 16.0934 N/A
10:35 am 10:35 Cloudy 65 18.1 59 14.8 81 81 E 9 15 29.87 1012 10 16.0934 N/A
10:55 am 10:55 Cloudy 65 18.4 59 14.9 80 80 E 9 15 29.89 1012 10 16.0934 N/A
11:15 am 11:15 Cloudy 65 18.3 58 14.4 78 78 E 9 15 29.89 1012 10 16.0934 N/A
11:35 am 11:35 Cloudy 65 18.5 58 14.3 77 77 ESE 8 13 29.89 1012 10 16.0934 N/A
11:55 am 11:55 Cloudy 66 18.9 58 14.4 75 75 SE 8 13 29.89 1012 10 16.0934 N/A
12:15 pm 12:15 Cloudy 66 19 58 14.6 76 76 E 5 7 29.9 1012 10 16.0934 N/A
12:35 pm 12:35 Cloudy 67 19.2 58 14.5 74 74 ESE 9 15 29.89 1012 10 16.0934 N/A
12:55 pm 12:55 Cloudy 66 19.1 58 14.4 74 74 E 8 13 29.89 1012 10 16.0934 N/A
1:15 pm 13:15 Cloudy 66 19 58 14.2 74 74 SE 13 20 29.9 1012 10 16.0934 N/A
1:35 pm 13:35 Cloudy 67 19.2 57 14.1 72 72 S 10 17 29.89 1012 10 16.0934 N/A
1:55 pm 13:55 Cloudy 67 19.3 58 14.2 72 72 S 10 17 29.88 1012 10 16.0934 N/A
2:15 pm 14:15 Cloudy 68 20 57 14 69 69 SSE 8 13 29.87 1011 10 16.0934 N/A
2:35 pm 14:35 Mostly Cloudy 68 20 57 13.9 68 68 S 8 13 29.86 1011 10 16.0934 N/A
2:55 pm 14:55 Partly Cloudy 67 19.5 57 14.1 71 71 S 8 13 29.86 1011 10 16.0934 N/A
3:15 pm 15:15 Mostly Cloudy with Drizzle 65 18.6 58 14.5 77 77 S 10 17 29.87 1011 10 16.0934 N/A
3:35 pm 15:35 Mostly Cloudy 66 18.8 58 14.3 75 75 S 10 17 29.87 1011 10 16.0934 N/A
3:55 pm 15:55 Sunny 66 18.8 57 13.9 73 73 SSW 6 9 29.86 1011 10 16.0934 N/A
4:15 pm 16:15 Sunny 67 19.5 58 14.2 72 72 S 5 7 29.84 1011 10 16.0934 N/A
4:35 pm 16:35 Partly Cloudy 69 20.4 58 14.2 68 68 S 6 9 29.82 1010 10 16.0934 N/A
4:55 pm 16:55 Mostly Cloudy 69 20.4 57 14 67 67 S 6 9 29.81 1010 10 16.0934 N/A
5:15 pm 17:15 Cloudy 69 20.4 58 14.3 68 68 ESE 8 13 29.81 1010 10 16.0934 N/A
5:35 pm 17:35 Cloudy 69 20.4 58 14.3 68 68 SE 5 7 29.81 1010 10 16.0934 N/A
5:55 pm 17:55 Cloudy 69 20.5 58 14.2 67 67 SE 5 7 29.81 1010 10 16.0934 N/A
6:15 pm 18:15 Cloudy 69 20.6 58 14.3 67 67 SE 8 13 29.81 1010 10 16.0934 N/A
6:35 pm 18:35 Cloudy 69 20.7 58 14.3 67 67 SE 5 7 29.81 1010 10 16.0934 N/A
6:55 pm 18:55 Mostly Cloudy 70 21 58 14.3 66 66 SSE 3 6 29.81 1009 10 16.0934 N/A
7:15 pm 19:15 Partly Cloudy 69 20.7 58 14.3 67 67 ESE 5 7 29.81 1010 10 16.0934 N/A
7:35 pm 19:35 Partly Cloudy 69 20.7 58 14.4 67 67 S 3 6 29.81 1010 10 16.0934 N/A
7:55 pm 19:55 Sunny 69 20.5 58 14.7 70 70 N N/A 29.81 1010 10 16.0934 N/A
8:15 pm 20:15 Partly Cloudy 68 20 59 14.8 72 72 N N/A 29.82 1010 10 16.0934 N/A
8:35 pm 20:35 Mostly Cloudy 68 19.9 59 14.9 73 73 N N/A 29.82 1010 10 16.0934 N/A
8:55 pm 20:55 Mostly Cloudy 68 19.8 58 14.7 73 73 N N/A 29.82 1010 10 16.0934 N/A
9:15 pm 21:15 Mostly Cloudy 67 19.4 59 14.9 75 75 N N/A 29.83 1010 10 16.0934 N/A
9:35 pm 21:35 Cloudy 66 19.1 59 15.1 78 78 S 3 6 29.84 1011 10 16.0934 N/A
9:55 pm 21:55 Mostly Cloudy 66 18.8 60 15.3 80 80 SSW 3 6 29.86 1011 10 16.0934 N/A
10:15 pm 22:15 Partly Cloudy 65 18.1 60 15.4 84 84 N N/A 29.86 1011 10 16.0934 N/A
10:35 pm 22:35 Partly Cloudy 64 17.7 60 15.7 88 88 N N/A 29.87 1011 10 16.0934 N/A
10:55 pm 22:55 Mostly Cloudy 65 18.1 60 15.6 85 85 S 5 7 29.86 1011 10 16.0934 N/A
11:15 pm 23:15 Cloudy 65 18.1 60 15.6 85 85 SSW 6 9 29.86 1011 10 16.0934 N/A
11:35 pm 23:35 Cloudy 64 18 59 15.2 84 84 S 5 7 29.86 1011 10 16.0934 N/A
11:55 pm 23:55 Partly Cloudy 64 17.6 59 15 85 85 N N/A 29.86 1011 10 16.0934 N/A

Powered by AerisWeather